TimeEDT,TemperatureF,Dew PointF,Humidity,Sea Level PressureIn,VisibilityMPH,Wind Direction,Wind SpeedMPH,Gust SpeedMPH,PrecipitationIn,Events,Conditions,WindDirDegrees,DateUTC
12:53 AM,53.1,39.0,59,30.00,10.0,West,4.6,-,N/A,,Clear,260,2012-11-02 04:53:00
1:53 AM,51.1,37.9,61,30.00,10.0,West,3.5,-,N/A,,Clear,270,2012-11-02 05:53:00
2:53 AM,48.0,37.9,68,30.00,10.0,WSW,4.6,-,N/A,,Clear,250,2012-11-02 06:53:00
3:53 AM,50.0,37.0,61,30.01,10.0,West,4.6,-,N/A,,Clear,260,2012-11-02 07:53:00
4:53 AM,48.0,37.0,66,30.01,10.0,Calm,Calm,-,N/A,,Clear,0,2012-11-02 08:53:00
5:53 AM,50.0,35.1,57,30.02,10.0,West,4.6,-,N/A,,Clear,270,2012-11-02 09:53:00
6:53 AM,48.9,37.0,64,30.04,10.0,West,3.5,-,N/A,,Clear,270,2012-11-02 10:53:00
7:53 AM,46.0,37.0,71,30.04,10.0,West,3.5,-,N/A,,Clear,270,2012-11-02 11:53:00
8:53 AM,53.1,35.1,50,30.06,10.0,West,3.5,-,N/A,,Clear,270,2012-11-02 12:53:00
9:53 AM,57.9,37.0,46,30.08,10.0,West,3.5,-,N/A,,Clear,270,2012-11-02 13:53:00
10:53 AM,64.0,37.0,37,30.07,10.0,West,4.6,-,N/A,,Clear,260,2012-11-02 14:53:00
11:53 AM,68.0,37.9,33,30.07,10.0,WSW,8.1,-,N/A,,Clear,250,2012-11-02 15:53:00
12:53 PM,69.1,39.9,35,30.04,10.0,SW,9.2,-,N/A,,Clear,220,2012-11-02 16:53:00
1:53 PM,73.0,41.0,31,30.00,10.0,WSW,10.4,-,N/A,,Clear,250,2012-11-02 17:53:00
2:53 PM,75.0,42.1,31,29.97,10.0,SW,13.8,-,N/A,,Clear,230,2012-11-02 18:53:00
3:53 PM,75.9,43.0,31,29.95,10.0,WSW,10.4,-,N/A,,Clear,250,2012-11-02 19:53:00
4:53 PM,75.0,44.1,33,29.95,10.0,WSW,12.7,-,N/A,,Clear,240,2012-11-02 20:53:00
5:53 PM,73.0,45.0,37,29.95,10.0,WSW,10.4,-,N/A,,Clear,250,2012-11-02 21:53:00
6:53 PM,68.0,46.9,47,29.96,10.0,SW,9.2,-,N/A,,Clear,230,2012-11-02 22:53:00
7:53 PM,66.0,51.1,59,29.97,10.0,SW,6.9,-,N/A,,Clear,220,2012-11-02 23:53:00
8:53 PM,62.1,51.1,67,29.98,10.0,SW,5.8,-,N/A,,Clear,230,2012-11-03 00:53:00
9:53 PM,61.0,50.0,67,29.99,10.0,SW,6.9,-,N/A,,Clear,230,2012-11-03 01:53:00
10:53 PM,63.0,50.0,63,30.00,10.0,WSW,8.1,-,N/A,,Clear,240,2012-11-03 02:53:00
11:53 PM,62.1,51.1,67,30.01,10.0,WSW,6.9,-,N/A,,Clear,250,2012-11-03 03:53:00